Powrót do katalogu

HULIANWANG DIGUI-94

AktywnyŁącznośćLEO
NORAD 66002·PAYLOAD·🇨🇳 China

Wystrzelony Oct 16, 2025 z Wenchang Space Launch Site

Loading…

Następne Przeloty (najbliższe 24 godziny)

TLE

ŚwieżeSource: Space-Track

Epoka: Sep 14, 2026, 06:52 UTC

1 66002U 25231H   26257.28624230 -.00000101  00000-0  49217-4 0  9996
2 66002  50.0046 216.0516 0000349  44.8684 315.2216 13.29328701 44747

Śledź HULIANWANG DIGUI-94 w czasie rzeczywistym z AllMySat

Download on the App Store